20040722,000015,786271,31.821333,-124.105833,19.562,32.948,NaN,NaN
20040722,000045,786301,31.822500,-124.106500,19.546,32.946,NaN,NaN
20040722,000114,786330,31.823500,-124.107333,19.529,32.952,NaN,NaN
20040722,000144,786360,31.824500,-124.108000,19.504,32.941,NaN,NaN
20040722,000214,786390,31.825500,-124.108833,19.483,32.933,NaN,NaN
20040722,000245,786421,31.826500,-124.109500,19.462,32.923,NaN,NaN
20040722,000315,786451,31.827500,-124.110167,19.450,32.917,NaN,NaN
20040722,000344,786480,31.828500,-124.111000,19.448,32.914,NaN,NaN
20040722,000414,786510,31.829500,-124.111667,19.453,32.911,NaN,NaN
20040722,000445,786541,31.830500,-124.112500,19.456,32.908,NaN,NaN
20040722,000515,786571,31.831500,-124.113167,19.459,32.908,NaN,NaN
20040722,000544,786600,31.832500,-124.114000,19.465,32.907,NaN,NaN
20040722,000614,786630,31.833500,-124.114667,19.474,32.904,NaN,NaN
20040722,000644,786660,31.834500,-124.115333,19.482,32.907,NaN,NaN
20040722,000715,786691,31.835500,-124.116167,19.498,32.908,NaN,NaN
20040722,000745,786721,31.836500,-124.116833,19.516,32.908,NaN,NaN
20040722,000814,786750,31.837500,-124.117500,19.531,32.910,NaN,NaN
20040722,000844,786780,31.838333,-124.118333,19.549,32.912,NaN,NaN
20040722,000915,786811,31.839333,-124.119000,19.562,32.913,NaN,NaN
20040722,000945,786841,31.840500,-124.119833,19.576,32.913,NaN,NaN
20040722,001014,786870,31.841500,-124.120500,19.585,32.914,NaN,NaN
20040722,001044,786900,31.842500,-124.121167,19.591,32.914,NaN,NaN
20040722,001115,786931,31.843500,-124.122000,19.600,32.913,NaN,NaN
20040722,001145,786961,31.844500,-124.122667,19.611,32.914,NaN,NaN
20040722,001215,786991,31.845333,-124.123500,19.627,32.915,NaN,NaN
20040722,001244,787020,31.846333,-124.124167,19.641,32.916,NaN,NaN
20040722,001314,787050,31.847333,-124.124833,19.645,32.916,NaN,NaN
20040722,001345,787081,31.848333,-124.125667,19.650,32.917,NaN,NaN
20040722,001415,787111,31.849333,-124.126333,19.657,32.920,1.210,NaN
20040722,001444,787140,31.850333,-124.127167,19.665,32.920,NaN,NaN
20040722,001514,787170,31.851333,-124.127833,19.673,32.922,NaN,NaN
20040722,001544,787200,31.852333,-124.128667,19.678,32.924,NaN,NaN
20040722,001615,787231,31.853333,-124.129333,19.682,32.923,NaN,NaN
20040722,001645,787261,31.854333,-124.130167,19.680,32.922,NaN,NaN
20040722,001714,787290,31.855333,-124.130833,19.685,32.921,NaN,NaN
20040722,001744,787320,31.856333,-124.131667,19.686,32.921,NaN,NaN
20040722,001815,787351,31.857333,-124.132333,19.692,32.922,NaN,NaN
20040722,001845,787381,31.858333,-124.133167,19.691,32.922,NaN,NaN
20040722,001914,787410,31.859333,-124.133833,19.695,32.922,NaN,NaN
20040722,001944,787440,31.860333,-124.134667,19.699,32.924,NaN,NaN
20040722,002014,787470,31.861333,-124.135500,19.699,32.924,NaN,NaN
20040722,002045,787501,31.862333,-124.136167,19.698,32.924,NaN,NaN
20040722,002115,787531,31.863333,-124.136833,19.701,32.924,NaN,NaN
20040722,002144,787560,31.864333,-124.137667,19.702,32.925,NaN,NaN
20040722,002214,787590,31.865333,-124.138333,19.709,32.927,NaN,NaN
20040722,002245,787621,31.866333,-124.139000,19.719,32.926,NaN,NaN
20040722,002315,787651,31.867500,-124.139667,19.732,32.928,NaN,NaN
20040722,002344,787680,31.868500,-124.140500,19.741,32.929,NaN,NaN
20040722,002414,787710,31.869500,-124.141167,19.742,32.928,NaN,NaN
20040722,002444,787740,31.870500,-124.141833,19.744,32.924,NaN,NaN
20040722,002515,787771,31.871500,-124.142667,19.735,32.918,NaN,NaN
20040722,002545,787801,31.872500,-124.143333,19.726,32.908,NaN,NaN
20040722,002614,787830,31.873500,-124.144167,19.715,32.897,NaN,NaN
20040722,002644,787860,31.874500,-124.144833,19.703,32.890,NaN,NaN
20040722,002715,787891,31.875500,-124.145500,19.694,32.879,NaN,NaN
20040722,002745,787921,31.876500,-124.146167,19.686,32.874,NaN,NaN
20040722,002814,787950,31.877500,-124.146833,19.677,32.868,NaN,NaN
20040722,002844,787980,31.878500,-124.147667,19.657,32.864,NaN,NaN
20040722,002914,788010,31.879500,-124.148333,19.648,32.859,NaN,NaN
20040722,002945,788041,31.880500,-124.149000,19.655,32.857,NaN,NaN
20040722,003015,788071,31.881500,-124.149667,19.662,32.854,NaN,NaN
20040722,003044,788100,31.882500,-124.150500,19.669,32.854,NaN,NaN
20040722,003114,788130,31.883500,-124.151167,19.674,32.853,NaN,NaN
20040722,003145,788161,31.884500,-124.151833,19.682,32.852,NaN,NaN
20040722,003215,788191,31.885667,-124.152500,19.688,32.851,NaN,NaN
20040722,003244,788220,31.886667,-124.153333,19.694,32.850,NaN,NaN
20040722,003314,788250,31.887667,-124.154000,19.702,32.849,NaN,NaN
20040722,003345,788281,31.888667,-124.154667,19.710,32.848,NaN,NaN
20040722,003415,788311,31.889833,-124.155333,19.718,32.848,NaN,NaN
20040722,003445,788341,31.890833,-124.156000,19.733,32.847,NaN,NaN
20040722,003514,788370,31.891833,-124.156833,19.751,32.848,NaN,NaN
20040722,003544,788400,31.892833,-124.157500,19.775,32.848,NaN,NaN
20040722,003615,788431,31.894000,-124.158167,19.796,32.848,NaN,NaN
20040722,003645,788461,31.895000,-124.159000,19.813,32.848,NaN,NaN
20040722,003714,788490,31.896000,-124.159667,19.822,32.848,NaN,NaN
20040722,003744,788520,31.897000,-124.160333,19.821,32.846,NaN,NaN
20040722,003814,788550,31.898167,-124.161000,19.815,32.844,NaN,NaN
20040722,003845,788581,31.899167,-124.161833,19.808,32.837,NaN,NaN
20040722,003915,788611,31.900167,-124.162500,19.801,32.834,NaN,NaN
20040722,003944,788640,31.901167,-124.163167,19.793,32.825,NaN,NaN
20040722,004014,788670,31.902167,-124.163833,19.790,32.822,NaN,NaN
20040722,004045,788701,31.903333,-124.164500,19.790,32.820,NaN,NaN
20040722,004115,788731,31.904333,-124.165167,19.798,32.819,NaN,NaN
20040722,004144,788760,31.905333,-124.165833,19.808,32.816,NaN,NaN
20040722,004214,788790,31.906333,-124.166667,19.811,32.817,NaN,NaN
20040722,004244,788820,31.907333,-124.167333,19.813,32.815,NaN,NaN
20040722,004315,788851,31.908500,-124.168000,19.813,32.815,NaN,NaN
20040722,004345,788881,31.909500,-124.168667,19.809,32.816,NaN,NaN
20040722,004414,788910,31.910500,-124.169500,19.805,32.817,1.252,NaN
20040722,004444,788940,31.911333,-124.170000,19.801,32.816,NaN,NaN
20040722,004515,788971,31.911833,-124.170333,19.796,32.816,NaN,NaN
20040722,004545,789001,31.912167,-124.170667,19.791,32.816,NaN,NaN
20040722,004614,789030,31.912500,-124.170833,19.789,32.816,NaN,NaN
20040722,004644,789060,31.912833,-124.171000,19.787,32.816,NaN,NaN
20040722,004714,789090,31.913000,-124.171167,19.786,32.815,NaN,NaN
20040722,004745,789121,31.913333,-124.171167,19.782,32.816,NaN,NaN
20040722,004815,789151,31.913333,-124.171333,19.779,32.817,NaN,NaN
20040722,004844,789180,31.913500,-124.171333,19.779,32.816,NaN,NaN
20040722,004914,789210,31.913500,-124.171333,19.778,32.816,NaN,NaN
20040722,004945,789241,31.913667,-124.171167,19.775,32.817,NaN,NaN
20040722,005015,789271,31.913667,-124.171167,19.773,32.816,NaN,NaN
20040722,005044,789300,31.913667,-124.171000,19.773,32.816,NaN,NaN
20040722,005114,789330,31.913667,-124.171000,19.773,32.817,NaN,NaN
20040722,005144,789360,31.913833,-124.170833,19.774,32.817,NaN,NaN
20040722,005215,789391,31.913833,-124.170833,19.776,32.817,NaN,NaN
20040722,005245,789421,31.913833,-124.170667,19.777,32.817,NaN,NaN
20040722,005314,789450,31.913667,-124.170667,19.778,32.817,NaN,NaN
20040722,005344,789480,31.913667,-124.170667,19.778,32.817,NaN,NaN
20040722,005415,789511,31.913667,-124.170333,19.778,32.818,NaN,NaN
20040722,005445,789541,31.913500,-124.170333,19.779,32.817,NaN,NaN
20040722,005514,789570,31.913500,-124.170167,19.776,32.818,NaN,NaN
20040722,005544,789600,31.913333,-124.170000,19.776,32.818,NaN,NaN
20040722,005615,789631,31.913333,-124.169833,19.775,32.818,NaN,NaN
20040722,005645,789661,31.913333,-124.169667,19.775,32.818,NaN,NaN
20040722,005715,789691,31.913333,-124.169500,19.774,32.818,NaN,NaN
20040722,005744,789720,31.913333,-124.169500,19.775,32.818,NaN,NaN
20040722,005814,789750,31.913333,-124.169333,19.778,32.818,NaN,NaN
20040722,005845,789781,31.913333,-124.169333,19.779,32.818,NaN,NaN
20040722,005915,789811,31.913167,-124.169167,19.781,32.818,NaN,NaN
20040722,005944,789840,31.913167,-124.169167,19.782,32.818,NaN,NaN
20040722,010014,789870,31.913000,-124.169000,19.784,32.818,NaN,NaN
20040722,010044,789900,31.913000,-124.168833,19.785,32.818,NaN,NaN
20040722,010115,789931,31.913000,-124.168667,19.785,32.818,NaN,NaN
20040722,010145,789961,31.913000,-124.168500,19.786,32.818,NaN,NaN
20040722,010214,789990,31.913000,-124.168500,19.787,32.818,NaN,NaN
20040722,010244,790020,31.913000,-124.168333,19.786,32.819,NaN,NaN
20040722,010315,790051,31.913000,-124.168333,19.786,32.819,NaN,NaN
20040722,010345,790081,31.912833,-124.168167,19.786,32.820,NaN,NaN
20040722,010414,790110,31.912833,-124.168167,19.786,32.820,NaN,NaN
20040722,010444,790140,31.912833,-124.168000,19.786,32.820,NaN,NaN
20040722,010514,790170,31.912833,-124.168000,19.786,32.819,NaN,NaN
20040722,010545,790201,31.912833,-124.168167,19.785,32.820,NaN,NaN
20040722,010615,790231,31.912833,-124.168167,19.786,32.820,NaN,NaN
20040722,010644,790260,31.912833,-124.168167,19.787,32.820,NaN,NaN
20040722,010714,790290,31.912833,-124.168333,19.787,32.819,NaN,NaN
20040722,010745,790321,31.912667,-124.168333,19.786,32.820,NaN,NaN
20040722,010815,790351,31.912667,-124.168333,19.785,32.820,NaN,NaN
20040722,010844,790380,31.912667,-124.168333,19.785,32.820,NaN,NaN
20040722,010914,790410,31.912667,-124.168333,19.785,32.821,NaN,NaN
20040722,010944,790440,31.912667,-124.168333,19.786,32.821,NaN,NaN
20040722,011015,790471,31.912500,-124.168333,19.788,32.820,NaN,NaN
20040722,011045,790501,31.912500,-124.168333,19.801,32.822,NaN,NaN
20040722,011114,790530,31.912333,-124.168167,19.812,32.824,NaN,NaN
20040722,011144,790560,31.912333,-124.168167,19.804,32.823,NaN,NaN
20040722,011215,790591,31.912167,-124.168167,19.796,32.822,NaN,NaN
20040722,011245,790621,31.912167,-124.168000,19.793,32.821,NaN,NaN
20040722,011314,790650,31.912000,-124.168000,19.791,32.822,NaN,NaN
20040722,011344,790680,31.912000,-124.168000,19.786,32.822,NaN,NaN
20040722,011414,790710,31.912000,-124.167833,19.783,32.822,1.260,NaN
20040722,011445,790741,31.912000,-124.167833,19.785,32.821,NaN,NaN
20040722,011515,790771,31.911833,-124.167833,19.786,32.822,NaN,NaN
20040722,011544,790800,31.911667,-124.167667,19.788,32.822,NaN,NaN
20040722,011614,790830,31.911667,-124.167667,19.804,32.825,NaN,NaN
20040722,011645,790861,31.911667,-124.167667,19.807,32.825,NaN,NaN
20040722,011715,790891,31.911667,-124.167500,19.796,32.823,NaN,NaN
20040722,011744,790920,31.911667,-124.167333,19.792,32.822,NaN,NaN
20040722,011814,790950,31.911500,-124.167333,19.789,32.822,NaN,NaN
20040722,011845,790981,31.911500,-124.167167,19.789,32.821,NaN,NaN
20040722,011915,791011,31.911500,-124.167167,19.789,32.822,NaN,NaN
20040722,011945,791041,31.911333,-124.167000,19.791,32.822,NaN,NaN
20040722,012014,791070,31.911333,-124.167000,19.802,32.823,NaN,NaN
20040722,012044,791100,31.911167,-124.166833,19.806,32.825,NaN,NaN
20040722,012115,791131,31.911167,-124.166833,19.803,32.824,NaN,NaN
20040722,012145,791161,31.911167,-124.166667,19.795,32.824,NaN,NaN
20040722,012214,791190,31.911000,-124.166667,19.791,32.822,NaN,NaN
20040722,012244,791220,31.911000,-124.166500,19.789,32.822,NaN,NaN
20040722,012314,791250,31.911000,-124.166500,19.788,32.822,NaN,NaN
20040722,012345,791281,31.911000,-124.166333,19.786,32.823,NaN,NaN
20040722,012415,791311,31.911000,-124.166333,19.786,32.822,NaN,NaN
20040722,012444,791340,31.911000,-124.166167,19.786,32.822,NaN,NaN
20040722,012514,791370,31.910833,-124.166167,19.787,32.823,NaN,NaN
20040722,012545,791401,31.910833,-124.166000,19.788,32.822,NaN,NaN
20040722,012615,791431,31.910833,-124.165833,19.787,32.823,NaN,NaN
20040722,012644,791460,31.910667,-124.165833,19.789,32.823,NaN,NaN
20040722,012714,791490,31.910667,-124.165667,19.790,32.824,NaN,NaN
20040722,012744,791520,31.910500,-124.165667,19.793,32.823,NaN,NaN
20040722,012815,791551,31.910500,-124.165500,19.791,32.824,NaN,NaN
20040722,012845,791581,31.910500,-124.165333,19.788,32.824,NaN,NaN
20040722,012914,791610,31.910500,-124.165333,19.787,32.824,NaN,NaN
20040722,012944,791640,31.910500,-124.165167,19.786,32.824,NaN,NaN
20040722,013015,791671,31.910500,-124.165167,19.786,32.823,NaN,NaN
20040722,013045,791701,31.910333,-124.165000,19.787,32.824,NaN,NaN
20040722,013114,791730,31.910333,-124.165000,19.788,32.824,NaN,NaN
20040722,013144,791760,31.910167,-124.164833,19.791,32.824,NaN,NaN
20040722,013214,791790,31.910167,-124.164833,19.794,32.824,NaN,NaN
20040722,013245,791821,31.910000,-124.164667,19.797,32.825,NaN,NaN
20040722,013315,791851,31.909833,-124.164667,19.803,32.826,NaN,NaN
20040722,013344,791880,31.909833,-124.164500,19.797,32.826,NaN,NaN
20040722,013414,791910,31.909833,-124.164333,19.791,32.825,NaN,NaN
20040722,013445,791941,31.909667,-124.164167,19.788,32.825,NaN,NaN
20040722,013515,791971,31.909500,-124.164000,19.786,32.826,NaN,NaN
20040722,013544,792000,31.909500,-124.163833,19.785,32.825,NaN,NaN
20040722,013614,792030,31.909500,-124.163667,19.784,32.825,NaN,NaN
20040722,013644,792060,31.909500,-124.163500,19.782,32.826,NaN,NaN
20040722,013715,792091,31.909500,-124.163500,19.779,32.825,NaN,NaN
20040722,013745,792121,31.909500,-124.163500,19.780,32.826,NaN,NaN
20040722,013814,792150,31.909500,-124.163333,19.781,32.826,NaN,NaN
20040722,013844,792180,31.909500,-124.163333,19.781,32.826,NaN,NaN
20040722,013915,792211,31.909500,-124.163333,19.782,32.825,NaN,NaN
20040722,013945,792241,31.909333,-124.163500,19.783,32.825,NaN,NaN
20040722,014014,792270,31.909167,-124.163667,19.783,32.825,NaN,NaN
20040722,014044,792300,31.909167,-124.163667,19.783,32.825,NaN,NaN
20040722,014115,792331,31.908833,-124.163833,19.783,32.826,NaN,NaN
20040722,014145,792361,31.908667,-124.164000,19.783,32.825,NaN,NaN
20040722,014215,792391,31.908667,-124.164167,19.783,32.825,NaN,NaN
20040722,014244,792420,31.908500,-124.164333,19.783,32.825,NaN,NaN
20040722,014314,792450,31.908333,-124.164333,19.781,32.826,NaN,NaN
20040722,014345,792481,31.908167,-124.164500,19.781,32.826,NaN,NaN
20040722,014415,792511,31.908000,-124.164667,19.776,32.827,1.252,NaN
20040722,014444,792540,31.907833,-124.164667,19.777,32.826,NaN,NaN
20040722,014514,792570,31.907667,-124.164833,19.776,32.827,NaN,NaN
20040722,014544,792600,31.907500,-124.164833,19.774,32.828,NaN,NaN
20040722,014615,792631,31.907167,-124.164833,19.771,32.828,NaN,NaN
20040722,014645,792661,31.907000,-124.165000,19.771,32.828,NaN,NaN
20040722,014714,792690,31.906833,-124.165000,19.775,32.827,NaN,NaN
20040722,014744,792720,31.906667,-124.165167,19.779,32.827,NaN,NaN
20040722,014815,792751,31.906500,-124.165333,19.782,32.826,NaN,NaN
20040722,014845,792781,31.906500,-124.165500,19.786,32.826,NaN,NaN
20040722,014914,792810,31.906333,-124.165833,19.786,32.826,NaN,NaN
20040722,014944,792840,31.906333,-124.166000,19.786,32.826,NaN,NaN
20040722,015014,792870,31.906333,-124.166333,19.785,32.826,NaN,NaN
20040722,015045,792901,31.906167,-124.166500,19.785,32.827,NaN,NaN
20040722,015115,792931,31.906167,-124.166667,19.784,32.827,NaN,NaN
20040722,015144,792960,31.906000,-124.166833,19.784,32.827,NaN,NaN
20040722,015214,792990,31.906000,-124.167000,19.782,32.827,NaN,NaN
20040722,015245,793021,31.905833,-124.167333,19.782,32.827,NaN,NaN
20040722,015315,793051,31.905667,-124.167500,19.777,32.828,NaN,NaN
20040722,015344,793080,31.905667,-124.167667,19.771,32.829,NaN,NaN
20040722,015414,793110,31.905500,-124.167833,19.771,32.828,NaN,NaN
20040722,015444,793140,31.905333,-124.168000,19.775,32.827,NaN,NaN
20040722,015515,793171,31.905333,-124.168167,19.776,32.826,NaN,NaN
20040722,015545,793201,31.905167,-124.168500,19.776,32.826,NaN,NaN
20040722,015614,793230,31.905000,-124.168667,19.774,32.827,NaN,NaN
20040722,015644,793260,31.905000,-124.168833,19.776,32.826,NaN,NaN
20040722,015715,793291,31.904833,-124.169000,19.777,32.826,NaN,NaN
20040722,015745,793321,31.904667,-124.169333,19.776,32.827,NaN,NaN
20040722,015814,793350,31.904667,-124.169500,19.773,32.827,NaN,NaN
20040722,015844,793380,31.904500,-124.169667,19.771,32.828,NaN,NaN
20040722,015914,793410,31.904333,-124.169833,19.772,32.827,NaN,NaN
20040722,015945,793441,31.904333,-124.170167,19.772,32.826,NaN,NaN
20040722,020015,793471,31.904167,-124.170333,19.772,32.826,NaN,NaN
20040722,020044,793500,31.904000,-124.170500,19.769,32.825,NaN,NaN
20040722,020114,793530,31.904000,-124.170667,19.768,32.826,NaN,NaN
20040722,020145,793561,31.903833,-124.170833,19.770,32.825,NaN,NaN
20040722,020215,793591,31.903667,-124.171167,19.770,32.825,NaN,NaN
20040722,020244,793620,31.903667,-124.171333,19.770,32.824,NaN,NaN
20040722,020314,793650,31.903500,-124.171500,19.771,32.824,NaN,NaN
20040722,020345,793681,31.903500,-124.171833,19.771,32.823,NaN,NaN
20040722,020415,793711,31.903333,-124.172000,19.771,32.823,NaN,NaN
20040722,020445,793741,31.903167,-124.172167,19.769,32.823,NaN,NaN
20040722,020514,793770,31.903167,-124.172500,19.769,32.823,NaN,NaN
20040722,020544,793800,31.903167,-124.172667,19.768,32.824,NaN,NaN
20040722,020615,793831,31.903000,-124.173000,19.767,32.824,NaN,NaN
20040722,020645,793861,31.903000,-124.173167,19.767,32.825,NaN,NaN
20040722,020714,793890,31.903000,-124.173333,19.766,32.825,NaN,NaN
20040722,020744,793920,31.903000,-124.173500,19.765,32.824,NaN,NaN
20040722,020814,793950,31.903000,-124.173500,19.763,32.825,NaN,NaN
20040722,020845,793981,31.903000,-124.173667,19.762,32.824,NaN,NaN
20040722,020915,794011,31.903000,-124.173833,19.758,32.825,NaN,NaN
20040722,020944,794040,31.903000,-124.174167,19.756,32.825,NaN,NaN
20040722,021014,794070,31.903000,-124.174333,19.755,32.826,NaN,NaN
20040722,021045,794101,31.903000,-124.174500,19.752,32.825,NaN,NaN
20040722,021115,794131,31.903167,-124.174667,19.750,32.824,NaN,NaN
20040722,021144,794160,31.903167,-124.175000,19.747,32.823,NaN,NaN
20040722,021214,794190,31.903333,-124.175167,19.743,32.824,NaN,NaN
20040722,021244,794220,31.903500,-124.175333,19.739,32.824,NaN,NaN
20040722,021315,794251,31.903667,-124.175500,19.735,32.825,NaN,NaN
20040722,021345,794281,31.903667,-124.175500,19.733,32.824,NaN,NaN
20040722,021414,794310,31.903833,-124.175500,19.729,32.825,1.256,NaN
20040722,021444,794340,31.904000,-124.175667,19.726,32.825,NaN,NaN
20040722,021515,794371,31.904167,-124.175667,19.722,32.826,NaN,NaN
20040722,021545,794401,31.904333,-124.175833,19.721,32.826,NaN,NaN
20040722,021614,794430,31.904333,-124.175833,19.719,32.825,NaN,NaN
20040722,021644,794460,31.904500,-124.176000,19.717,32.825,NaN,NaN
20040722,021714,794490,31.904667,-124.176167,19.712,32.826,NaN,NaN
20040722,021745,794521,31.904667,-124.176333,19.710,32.825,NaN,NaN
20040722,021815,794551,31.904833,-124.176500,19.708,32.826,NaN,NaN
20040722,021844,794580,31.905000,-124.176667,19.706,32.825,NaN,NaN
20040722,021914,794610,31.905167,-124.176833,19.705,32.824,NaN,NaN
20040722,021945,794641,31.905167,-124.176833,19.705,32.825,NaN,NaN
20040722,022015,794671,31.905333,-124.177000,19.705,32.824,NaN,NaN
20040722,022044,794700,31.905333,-124.177167,19.703,32.824,NaN,NaN
20040722,022114,794730,31.905500,-124.177167,19.700,32.824,NaN,NaN
20040722,022144,794760,31.905500,-124.177333,19.698,32.825,NaN,NaN
20040722,022215,794791,31.905667,-124.177500,19.697,32.825,NaN,NaN
20040722,022245,794821,31.905833,-124.177667,19.695,32.825,NaN,NaN
20040722,022314,794850,31.906000,-124.177667,19.695,32.825,NaN,NaN
20040722,022344,794880,31.906167,-124.177833,19.696,32.824,NaN,NaN
20040722,022415,794911,31.906167,-124.177833,19.694,32.824,NaN,NaN
20040722,022445,794941,31.906333,-124.177833,19.692,32.825,NaN,NaN
20040722,022514,794970,31.906500,-124.178000,19.691,32.826,NaN,NaN
20040722,022544,795000,31.906500,-124.178000,19.689,32.825,NaN,NaN
20040722,022615,795031,31.906667,-124.178000,19.690,32.825,NaN,NaN
20040722,022645,795061,31.906833,-124.178167,19.691,32.825,NaN,NaN
20040722,022715,795091,31.906833,-124.178167,19.692,32.825,NaN,NaN
20040722,022744,795120,31.907000,-124.178333,19.692,32.826,NaN,NaN
20040722,022814,795150,31.907167,-124.178500,19.692,32.826,NaN,NaN
20040722,022845,795181,31.907333,-124.178667,19.692,32.826,NaN,NaN
20040722,022915,795211,31.907333,-124.178833,19.694,32.826,NaN,NaN
20040722,022944,795240,31.907500,-124.179000,19.695,32.826,NaN,NaN
20040722,023014,795270,31.907667,-124.179167,19.697,32.826,NaN,NaN
20040722,023044,795300,31.907833,-124.179167,19.698,32.826,NaN,NaN
20040722,023115,795331,31.907833,-124.179333,19.698,32.827,NaN,NaN
20040722,023145,795361,31.908000,-124.179333,19.699,32.826,NaN,NaN
20040722,023214,795390,31.908000,-124.179333,19.698,32.827,NaN,NaN
20040722,023244,795420,31.908167,-124.179333,19.698,32.827,NaN,NaN
20040722,023315,795451,31.908333,-124.179500,19.698,32.827,NaN,NaN
20040722,023345,795481,31.908500,-124.179500,19.697,32.827,NaN,NaN
20040722,023414,795510,31.908667,-124.179500,19.696,32.827,NaN,NaN
20040722,023444,795540,31.908833,-124.179500,19.697,32.827,NaN,NaN
20040722,023514,795570,31.909000,-124.179333,19.697,32.826,NaN,NaN
20040722,023545,795601,31.909000,-124.179167,19.695,32.827,NaN,NaN
20040722,023615,795631,31.909000,-124.179167,19.694,32.827,NaN,NaN
20040722,023644,795660,31.909167,-124.178833,19.692,32.826,NaN,NaN
20040722,023714,795690,31.909167,-124.178500,19.690,32.826,NaN,NaN
20040722,023745,795721,31.909333,-124.178167,19.687,32.826,NaN,NaN
20040722,023815,795751,31.909500,-124.177667,19.685,32.826,NaN,NaN
20040722,023844,795780,31.909667,-124.177167,19.683,32.825,NaN,NaN
20040722,023914,795810,31.909833,-124.176500,19.684,32.824,NaN,NaN
20040722,023944,795840,31.910167,-124.175667,19.689,32.823,NaN,NaN
20040722,024015,795871,31.910667,-124.174667,19.694,32.823,NaN,NaN
20040722,024045,795901,31.911000,-124.173500,19.695,32.824,NaN,NaN
20040722,024114,795930,31.911500,-124.172167,19.693,32.825,NaN,NaN
20040722,024144,795960,31.912000,-124.170833,19.693,32.824,NaN,NaN
20040722,024215,795991,31.912500,-124.169500,19.696,32.823,NaN,NaN
20040722,024245,796021,31.913000,-124.168167,19.702,32.824,NaN,NaN
20040722,024314,796050,31.913500,-124.166833,19.713,32.823,NaN,NaN
20040722,024344,796080,31.914000,-124.165333,19.717,32.823,NaN,NaN
20040722,024414,796110,31.914667,-124.164000,19.719,32.822,1.257,NaN
20040722,024445,796141,31.915333,-124.162667,19.722,32.822,NaN,NaN
20040722,024515,796171,31.915833,-124.161333,19.723,32.822,NaN,NaN
20040722,024544,796200,31.916333,-124.160000,19.714,32.823,NaN,NaN
20040722,024614,796230,31.917000,-124.158500,19.704,32.823,NaN,NaN
20040722,024645,796261,31.917500,-124.157167,19.702,32.824,NaN,NaN
20040722,024715,796291,31.918167,-124.155833,19.705,32.822,NaN,NaN
20040722,024744,796320,31.918667,-124.154667,19.701,32.822,NaN,NaN
20040722,024814,796350,31.919333,-124.153333,19.697,32.821,NaN,NaN
20040722,024845,796381,31.920000,-124.152000,19.697,32.822,NaN,NaN
20040722,024915,796411,31.920667,-124.150667,19.700,32.825,NaN,NaN
20040722,024945,796441,31.921333,-124.149333,19.698,32.831,NaN,NaN
20040722,025014,796470,31.922000,-124.148000,19.691,32.834,NaN,NaN
20040722,025044,796500,31.922500,-124.146833,19.678,32.837,NaN,NaN
20040722,025115,796531,31.923167,-124.145500,19.667,32.840,NaN,NaN
20040722,025145,796561,31.923833,-124.144167,19.658,32.843,NaN,NaN
20040722,025214,796590,31.924500,-124.142833,19.648,32.846,NaN,NaN
20040722,025244,796620,31.925167,-124.141500,19.637,32.848,NaN,NaN
20040722,025314,796650,31.925833,-124.140167,19.623,32.851,NaN,NaN
20040722,025345,796681,31.926500,-124.138833,19.614,32.853,NaN,NaN
20040722,025415,796711,31.927167,-124.137500,19.606,32.854,NaN,NaN
20040722,025444,796740,31.927833,-124.136000,19.597,32.857,NaN,NaN
20040722,025514,796770,31.928500,-124.134667,19.585,32.862,NaN,NaN
20040722,025545,796801,31.929167,-124.133333,19.578,32.866,NaN,NaN